Aérodrome :
LOGIN :

S'inscrire | Disclaimer

   EN    FR    IT 

 










Légende :    VFR   VFR Marginal   IFR   IFR Intensif   IFR Très Intensif
Visi : 
Plafond : 
>= 8 km
>= 3000ft
5 à 8 km
1000 à 3000 ft
1500m à 5 km
500 à 1000 ft
800 à 1500m
200 à 500 ft
< 800m
< 200 ft
Symboles :   Orages  Brouillard  Fortes neiges  Fortes précipitations  Vent > 20 kt
SIGMETs :   Divers  Orages  Givrage  Turbulence  Onde Orograph.  Cendres Volcan.







- Altitude de l'aérodrome : 1989 ft
- Code IATA : KLV


LKKV - Karlovy Vary

DERNIER METAR :
  • 160500Z 25004KT 9999 SCT002 BKN026 M00/M01 Q1001 R29///////

METARs EXPIRÉS :
  • 160400Z 25005KT 7000 OVC002 M00/M01 Q1001 R29///////
  • 160300Z 26006KT 9000 BKN003 BKN013 M00/M01 Q1000 R29///////

TAF TAF LKKV
Valide du 16 à 00h jusqu'au 17 à 06h UTC


152300Z 1600/1706 VRB02KT 9999 BKN014
TEMPO 1600/1706 2500 BR BKN009
PROB30
TEMPO 1600/1706 1200 -SN OVC003
BECMG 1609/1611 26006KT
Pas de NOTAMs connus pour ce terrain.



MET'MAP, la Météo Aéronautique d'un coup d'oeil ! - Copyright ORBIFLY Décembre 2007 - Disclaimer

ORBIFLY MET'MAP TEAM :

Programmation & Développement : Alexandra Zaïnal
Conception & Développement : Baudouin d'Aumeries
Co-Programmation & Développement : Marc-Olivier Méhu
Soutien technique & logistique : Manuel Goepfert

Contact : metmap@orbifly.com




SOURCES & CREDITS :

   NOAA